EDT,Max TemperatureF,Mean TemperatureF,Min TemperatureF,Max Dew PointF,MeanDew PointF,Min DewpointF,Max Humidity, Mean Humidity, Min Humidity, Max Sea Level PressureIn, Mean Sea Level PressureIn, Min Sea Level PressureIn, Max VisibilityMiles, Mean VisibilityMiles, Min VisibilityMiles, Max Wind SpeedMPH, Mean Wind SpeedMPH, Max Gust SpeedMPH,PrecipitationIn, CloudCover, Events, WindDirDegrees
2013-10-1,76,65,54,61,57,54,100,77,54,30.09,30.04,30.00,10,8,2,14,6,20,0.00,3,Fog,227
2013-10-2,79,68,56,65,60,56,100,81,62,30.10,30.06,30.02,10,9,6,12,6,15,0.00,3,Fog,250
2013-10-3,79,67,54,68,61,53,100,85,69,30.10,30.06,30.01,10,8,3,12,6,15,0.13,7,Fog-Rain-Thunderstorm,166
2013-10-4,81,72,63,66,64,62,100,77,54,30.08,30.05,30.02,10,8,6,16,6,20,T,6,Fog-Rain,227
2013-10-5,76,69,62,70,66,62,100,87,74,30.09,30.04,29.97,10,6,2,10,4,15,0.06,7,Fog-Rain,177
2013-10-6,81,70,59,67,64,60,100,77,54,29.95,29.84,29.72,10,9,5,22,9,31,T,7,Rain,177
2013-10-7,59,54,48,63,47,41,100,81,61,30.13,29.86,29.73,10,9,3,24,11,29,0.58,7,Rain,248
2013-10-8,66,53,40,49,43,40,100,71,42,30.31,30.26,30.15,10,10,7,12,4,17,0.00,1,Fog,46
2013-10-9,68,54,40,45,42,39,96,67,37,30.36,30.30,30.26,10,10,10,13,6,16,0.00,2,,102
2013-10-10,70,55,39,46,41,38,89,61,33,30.25,30.19,30.12,10,10,10,10,5,18,0.00,6,,74
2013-10-11,74,59,43,50,46,41,93,66,38,30.15,30.11,30.07,10,10,10,9,3,14,0.00,4,,80
2013-10-12,75,61,46,60,52,42,84,71,57,30.15,30.12,30.09,10,10,10,10,5,15,0.00,4,,110
2013-10-13,68,64,59,61,58,54,100,87,73,30.29,30.24,30.15,10,6,1,10,6,15,0.48,7,Rain,58
2013-10-14,66,55,44,57,48,41,93,71,48,30.36,30.30,30.25,10,10,7,15,8,18,T,4,,24
2013-10-15,66,54,42,59,52,40,96,85,73,30.25,30.12,29.96,10,9,5,10,6,14,0.00,7,Fog,130
2013-10-16,64,57,50,61,57,48,93,86,78,29.95,29.90,29.82,10,8,2,16,8,22,0.39,8,Rain,202
2013-10-17,60,52,43,49,46,42,100,84,67,29.93,29.85,29.76,10,8,1,15,6,22,0.41,6,Fog-Rain,239
2013-10-18,62,53,43,45,42,39,92,69,46,30.00,29.94,29.87,10,10,7,18,9,25,0.00,4,Rain,223
2013-10-19,53,46,39,47,41,37,92,79,66,29.94,29.83,29.71,10,9,2,20,8,30,0.20,6,Rain,222
2013-10-20,57,48,38,39,37,35,92,72,51,30.01,29.97,29.91,10,10,10,20,10,25,0.00,3,,213
2013-10-21,63,53,43,45,38,35,77,57,36,30.01,29.94,29.85,10,10,10,21,10,28,0.02,5,Rain,199
2013-10-22,49,42,35,47,34,27,93,68,42,29.96,29.90,29.84,10,10,5,16,8,22,0.12,7,Rain,248
2013-10-23,45,39,33,38,33,29,92,75,57,29.94,29.84,29.77,10,9,3,17,6,23,0.15,8,Rain-Snow,273
2013-10-24,43,38,32,34,31,28,96,77,57,30.15,30.01,29.89,10,7,1,22,8,28,0.08,7,Rain-Snow,257
2013-10-25,48,41,33,35,31,25,96,71,45,30.32,30.24,30.13,10,8,2,18,9,26,0.04,6,Snow,251
2013-10-26,45,40,34,36,27,24,85,65,45,30.22,30.01,29.88,10,10,10,25,14,37,T,6,Rain,224
2013-10-27,50,41,32,35,32,28,96,71,46,30.10,30.06,29.98,10,10,7,14,6,18,0.00,4,,231
2013-10-28,57,44,31,39,34,28,92,70,47,30.34,30.23,30.10,10,10,10,14,4,16,0.00,4,,312
2013-10-29,57,43,29,39,34,28,100,72,43,30.42,30.36,30.27,10,10,7,8,3,10,0.00,4,,68
2013-10-30,64,49,34,50,39,32,96,68,39,30.25,30.18,30.08,10,10,9,12,4,14,0.00,4,,143
2013-10-31,66,61,55,57,55,50,93,83,72,30.07,29.79,29.38,10,7,2,23,11,32,0.44,8,Rain,177